Flag Weather past 2 weeks in Concord, California, U.S.A.

Now
43 °F

Fog.


Feels Like: 41 °F
Forecast: 42 / 63 °F
Wind: 3 mph from Southeast

Location: Buchanan Field

Current Time: Nov 28, 2014 at 6:53:57 AM

Latest Report: Nov 28, 2014 at 5:53 AM


Visibility: 4 mi

Pressure: 29.98 "Hg

Humidity: 89%

Dew point: 40 °F

Location of ConcordLocation

Historic Weather in Concord — Graph

°F

Concord temperature yesterday

Maximum temperature yesterday: 67 °F (at 1:53 PM)
Minimum temperature yesterday: 44 °F (at 6:53 AM)
Average temperature yesterday: 53 °F

Past Weeks' High & Low Weather Summary

 TemperatureHumidityPressure
High69 °F (Nov 24, 2:53 PM)100% (Nov 13, 7:53 AM)30.44 "Hg (Nov 13, 7:53 AM)
Low40 °F (Nov 24, 5:53 AM)19% (Nov 16, 11:53 AM)29.91 "Hg (Nov 13, 5:53 AM)
Average54 °F74%30.14 "Hg
* Reported Nov 13 5:53 AM — Nov 28 5:53 AM, Concord, Weather by CustomWeather, © 2014

Note: Actual official high and low records may vary slightly from our data, if they occured in-between our weather recording intervals... More about our weather records

Advertising

Concord weather history for previous 24 hours

 ConditionsComfort  
Time TempWeatherWind HumidityBarometerVisibility
5:53 AM
Nov 28
43 °FFog.3 mph89%29.98 "Hg4 mi
5:02 AM42 °FFog.3 mph85%30.02 "Hg4 mi
4:53 AM41 °FFog.No wind93%29.97 "Hg4 mi
3:53 AM41 °FFog.No wind93%29.98 "Hg3 mi
2:53 AM43 °FFog.No wind89%30.00 "Hg4 mi
1:53 AM43 °FFog.No wind89%30.01 "Hg4 mi
12:53 AM44 °FFog.5 mph85%30.02 "Hg5 mi
11:53 PM
Nov 27
45 °FFog.No wind90%30.03 "Hg4 mi
10:53 PM47 °FFog.No wind86%30.03 "Hg5 mi
9:53 PM48 °FFog.3 mph86%30.03 "Hg5 mi
8:53 PM48 °FFog.5 mph89%30.03 "Hg4 mi
7:53 PM50 °FFog.No wind89%30.02 "Hg4 mi
6:53 PM52 °FClear.No wind83%30.02 "Hg5 mi
5:53 PM56 °FClear.No wind77%30.01 "Hg6 mi
4:53 PM61 °FClear.3 mph62%30.02 "Hg6 mi
3:53 PM66 °FSunny.3 mph52%30.03 "Hg5 mi
2:53 PM67 °FSunny.6 mph51%30.05 "Hg6 mi
1:53 PM67 °FScattered clouds.6 mph51%30.06 "Hg6 mi
12:53 PM65 °FScattered clouds.7 mph54%30.09 "Hg6 mi
11:53 AM64 °FScattered clouds.5 mph58%30.11 "Hg7 mi
10:53 AM60 °FSunny.5 mph67%30.15 "Hg7 mi
9:53 AM54 °FFog.No wind80%30.16 "Hg4 mi
8:53 AM49 °FFog.No wind86%30.16 "Hg3 mi
7:53 AM44 °FFog.No wind93%30.16 "Hg3 mi
6:53 AM44 °FFog.3 mph93%30.15 "Hg2 mi
Weather by CustomWeather, © 2014

See weather overviewHow to use our weather pages